Location: Grasslands National Park East Block
(49.0708°N, 106.5295°W)
Time: 01:49:03
(UTC-06:00)

Vanguard 3 - Visible Passes

Search period start: 20 September 2019 00:00
Search period end: 30 September 2019 00:00
Orbit: 508 x 3263 km, 33.4° (Epoch: 19 September)

Date Brightness Start Highest point End Pass type
(mag) Time Alt. Az. Time Alt. Az. Time Alt. Az.
23 Sep 11.1 05:35:05 10° SE 05:38:08 11° SE 05:41:26 10° ESE visible
25 Sep 10.9 05:17:07 10° SE 05:20:54 12° SE 05:25:10 10° ESE visible
26 Sep 10.6 06:09:00 10° S 06:17:22 23° SE 06:28:45 10° E visible
27 Sep 10.7 04:59:46 10° SSE 05:03:46 12° SE 05:08:25 10° ESE visible
28 Sep 10.4 05:52:27 10° S 06:00:16 23° SE 06:11:12 10° E visible
29 Sep 10.5 04:42:49 10° SSE 04:46:45 13° SE 04:51:27 10° ESE visible
